User: anonymous   Login
Location: Caltech
(34.1382°N, 118.1253°W)
Time: 02:59:00
(UTC-07:00)
Language:

Cosmos 1697 Rocket - Orbit

View from above orbital plane
View from above orbital plane
View from above satellite
View from above satellite

Ground track
Ground track

The orbit data is extracted from the following two-line orbital elements,

1 16182U 85097B   15180.37583200 -.00000125  00000-0 -38904-4 0  9998
2 16182 071.0034 080.3606 0005522 089.0308 035.4528 14.16170846534456
Epoch (UTC): 29 June 2015 09:01:11
Eccentricity: 0.0005522
inclination: 71.0034°
perigee height: 834 km
apogee height: 842 km
right ascension of ascending node: 80.3606°
argument of perigee: 89.0308°
revolutions per day: 14.16170846
mean anomaly at epoch: 35.4528°
orbit number at epoch: 53445

The dashed part of the orbit path shows where the satellite is in the earth's shadow,  

DLR